GW6414 Weather Reports


Display with metric or nautical units.
time (UTC)temp
F
wind
direction
speed
MPH
gust
MPH
rain 1hr
in
rain 24hr
in
rain mn
in
humidity
%
barometer
mb
20260506015517 72 323 1.0 3.0 0.00 0.00 0.00 69 1006.3
20260506014517 72 313 1.0 4.0 0.00 0.00 0.00 68 1006.4
20260506013517 72 313 1.0 5.0 0.00 0.00 0.00 68 1006.3
20260506012517 73 314 2.0 6.0 0.00 0.00 0.00 67 1006.0
20260506011518 74 317 1.0 4.0 0.00 0.00 0.00 66 1006.1
20260506010521 75 325 1.0 4.0 0.00 0.00 0.00 66 1006.2
20260506005518 75 347 1.0 3.0 0.00 0.00 0.00 65 1006.0
20260506004518 76 345 1.0 2.0 0.00 0.00 0.00 64 1005.5
20260506003538 77 356 1.0 2.0 0.00 0.00 0.00 63 1005.4
20260506002516 78 336 1.0 5.0 0.00 0.00 0.00 62 1005.2
20260506001516 79 331 1.0 5.0 0.00 0.00 0.00 62 1005.0
20260506000516 81 328 2.0 7.0 0.00 0.00 0.00 60 1004.9
20260505235516 82 315 1.0 8.0 0.00 0.00 0.00 60 1004.6
20260505234516 83 357 1.0 4.0 0.00 0.00 0.00 58 1004.5
20260505233517 84 312 2.0 9.0 0.00 0.00 0.00 57 1004.4
20260505232517 85 314 2.0 7.0 0.00 0.00 0.00 54 1004.5
20260505231517 86 311 4.0 9.0 0.00 0.00 0.00 53 1004.2
20260505230537 86 310 3.0 9.0 0.00 0.00 0.00 50 1004.1
20260505225518 87 310 3.0 9.0 0.00 0.00 0.00 48 1003.8
20260505224517 87 307 3.0 9.0 0.00 0.00 0.00 47 1003.7
20260505223518 89 313 2.0 10.0 0.00 0.00 0.00 47 1003.8
20260505222538 90 307 2.0 9.0 0.00 0.00 0.00 46 1003.4
20260505221518 92 311 3.0 8.0 0.00 0.00 0.00 47 1003.1
20260505220518 92 319 1.0 5.0 0.00 0.00 0.00 46 1003.1
20260505215518 93 321 2.0 6.0 0.00 0.00 0.00 46 1003.3
20260505214518 93 341 1.0 4.0 0.00 0.00 0.00 46 1003.3
20260505213515 93 344 1.0 3.0 0.00 0.00 0.00 46 1003.3
20260505212516 93 345 1.0 4.0 0.00 0.00 0.00 48 1003.5
20260505211516 93 352 1.0 6.0 0.00 0.00 0.00 47 1003.6
20260505210516 93 346 1.0 3.0 0.00 0.00 0.00 48 1003.7
20260505205518 93 98 1.0 7.0 0.00 0.00 0.00 49 1003.7
20260505204516 93 113 1.0 5.0 0.00 0.00 0.00 51 1003.9
20260505203516 93 323 2.0 5.0 0.00 0.00 0.00 50 1004.0
20260505202516 92 330 1.0 4.0 0.00 0.00 0.00 52 1004.3
20260505201516 91 317 2.0 7.0 0.00 0.00 0.00 52 1004.2
20260505200517 92 99 1.0 9.0 0.00 0.00 0.00 52 1004.3
20260505195517 91 81 1.0 3.0 0.00 0.00 0.00 54 1004.4
20260505194517 91 107 2.0 5.0 0.00 0.00 0.00 53 1004.5
20260505193517 91 114 2.0 9.0 0.00 0.00 0.00 55 1004.5
20260505192517 90 91 2.0 4.0 0.00 0.00 0.00 54 1004.5
20260505191517 90 116 2.0 6.0 0.00 0.00 0.00 55 1004.5
20260505190518 89 8 1.0 4.0 0.00 0.00 0.00 57 1004.5
20260505185518 87 50 1.0 6.0 0.00 0.00 0.00 59 1004.6
20260505184518 87 122 2.0 7.0 0.00 0.00 0.00 60 1004.7
20260505183518 87 339 1.0 5.0 0.00 0.00 0.00 59 1004.8
20260505182515 87 62 1.0 3.0 0.00 0.00 0.00 60 1004.8
20260505181516 86 348 1.0 5.0 0.00 0.00 0.00 60 1004.9
20260505180516 86 113 2.0 5.0 0.00 0.00 0.00 60 1004.8
20260505175516 86 100 2.0 6.0 0.00 0.00 0.00 60 1004.8
20260505174516 87 50 1.0 4.0 0.00 0.00 0.00 60 1004.7
20260505173517 86 114 2.0 7.0 0.00 0.00 0.00 61 1004.8
20260505172516 86 21 2.0 6.0 0.00 0.00 0.00 62 1004.9
20260505171517 85 65 1.0 6.0 0.00 0.00 0.00 64 1004.9
20260505170517 84 93 1.0 4.0 0.00 0.00 0.00 65 1004.9
20260505165517 84 115 2.0 7.0 0.00 0.00 0.00 65 1004.9
20260505164517 84 44 1.0 3.0 0.00 0.00 0.00 65 1005.0
20260505163517 83 126 2.0 8.0 0.00 0.00 0.00 67 1004.9
20260505162518 84 125 2.0 6.0 0.00 0.00 0.00 65 1004.9
20260505161537 82 141 4.0 8.0 0.00 0.00 0.00 68 1004.9
20260505160518 82 70 1.0 5.0 0.00 0.00 0.00 69 1004.8
20260505152519 79 78 2.0 4.0 0.00 0.00 0.00 73 1004.6
20260505151516 78 110 2.0 6.0 0.00 0.00 0.00 75 1004.8
20260505150519 77 136 1.0 5.0 0.00 0.00 0.00 77 1004.8
20260505140517 74 116 2.0 6.0 0.00 0.00 0.00 82 1004.4
20260505124601 71 140 2.0 5.0 0.00 0.00 0.00 86 1004.3
20260505123521 71 129 1.0 4.0 0.00 0.00 0.00 86 1004.3
20260505122541 71 131 2.0 4.0 0.00 0.00 0.00 86 1004.1
20260505121538 71 136 1.0 5.0 0.00 0.00 0.00 87 1003.8
20260505120601 71 129 1.0 4.0 0.00 0.00 0.00 87 1003.9
20260505115541 71 137 1.0 5.0 0.00 0.00 0.00 86 1003.9
20260505114519 71 148 1.0 5.0 0.00 0.00 0.00 86 1003.8
20260505113519 71 130 2.0 6.0 0.00 0.00 0.00 86 1003.7
20260505112522 71 137 2.0 5.0 0.00 0.00 0.00 85 1003.7
20260505111519 71 150 2.0 7.0 0.00 0.00 0.00 85 1003.6
20260505110542 72 125 2.0 3.0 0.00 0.00 0.00 85 1003.6
20260505101523 71 136 2.0 5.0 0.00 0.00 0.00 85 1003.6
20260505100523 71 121 2.0 4.0 0.00 0.00 0.00 85 1003.6
20260505095520 72 139 3.0 6.0 0.00 0.00 0.00 84 1003.6
20260505094523 72 147 3.0 5.0 0.00 0.00 0.00 84 1003.7
20260505093521 72 142 2.0 6.0 0.00 0.00 0.00 84 1003.6
20260505092520 72 136 2.0 5.0 0.00 0.00 0.00 83 1003.8
20260505091520 72 131 3.0 6.0 0.00 0.00 0.00 83 1003.9
20260505090524 72 123 2.0 5.0 0.00 0.00 0.00 83 1004.0
20260505085524 72 129 2.0 5.0 0.00 0.00 0.00 83 1004.0
20260505084521 72 129 2.0 6.0 0.00 0.00 0.00 83 1004.1
20260505083521 72 127 2.0 6.0 0.00 0.00 0.00 82 1004.1
20260505082521 72 116 2.0 7.0 0.00 0.00 0.00 82 1004.0
20260505081542 72 135 2.0 5.0 0.00 0.00 0.00 81 1004.0
20260505080515 73 121 3.0 6.0 0.00 0.00 0.00 81 1004.1
20260505075536 73 141 3.0 8.0 0.00 0.00 0.00 80 1004.2
20260505074516 73 133 3.0 6.0 0.00 0.00 0.00 80 1004.4
20260505073536 73 132 2.0 7.0 0.00 0.00 0.00 79 1004.6
20260505072516 73 138 3.0 7.0 0.00 0.00 0.00 78 1004.7
20260505071525 73 136 1.0 3.0 0.00 0.00 0.00 78 1004.9
20260505070516 74 145 2.0 7.0 0.00 0.00 0.00 77 1005.1
20260505065517 74 129 2.0 7.0 0.00 0.00 0.00 76 1005.2
20260505064519 74 125 2.0 6.0 0.00 0.00 0.00 75 1005.3
20260505063517 74 138 2.0 6.0 0.00 0.00 0.00 74 1005.4
20260505062537 75 129 2.0 5.0 0.00 0.00 0.00 74 1005.4
20260505061527 75 121 2.0 4.0 0.00 0.00 0.00 73 1005.5
20260505060517 75 139 3.0 8.0 0.00 0.00 0.00 72 1005.4
20260505055518 75 131 3.0 5.0 0.00 0.00 0.00 71 1005.3
20260505054518 75 127 3.0 7.0 0.00 0.00 0.00 71 1005.2
20260505053518 75 131 3.0 8.0 0.00 0.00 0.00 70 1005.3
20260505052518 76 137 3.0 8.0 0.00 0.00 0.00 70 1005.3
20260505051516 76 134 3.0 6.0 0.00 0.00 0.00 70 1005.4
20260505050518 76 127 2.0 8.0 0.00 0.00 0.00 70 1005.6
20260505041517 76 145 4.0 8.0 0.00 0.00 0.00 70 1005.7
20260505040517 76 147 3.0 7.0 0.00 0.00 0.00 70 1005.8
20260505035537 76 138 3.0 6.0 0.00 0.00 0.00 69 1005.8
20260505034517 76 140 3.0 9.0 0.00 0.00 0.00 70 1005.7
20260505033517 76 145 3.0 9.0 0.00 0.00 0.00 70 1005.7
20260505032517 76 148 3.0 9.0 0.00 0.00 0.00 69 1005.6
20260505031518 76 145 3.0 7.0 0.00 0.00 0.00 69 1005.8
20260505030518 76 136 2.0 7.0 0.00 0.00 0.00 68 1005.9
20260505025519 76 147 3.0 8.0 0.00 0.00 0.00 68 1005.9
20260505024518 76 146 3.0 8.0 0.00 0.00 0.00 68 1005.9
20260505023518 76 137 3.0 7.0 0.00 0.00 0.00 67 1005.8
20260505022518 76 139 3.0 6.0 0.00 0.00 0.00 67 1005.8
20260505021518 76 150 3.0 7.0 0.00 0.00 0.00 67 1005.7
20260505020516 77 142 3.0 7.0 0.00 0.00 0.00 66 1005.6